Location: Strawberry
(45.6646°N, 111.9596°W)
Time: 15:41:51
(UTC+00:00)

SR - Visible Passes

Search period start: 03 October 2022 00:00
Search period end: 13 October 2022 00:00
Orbit: 573 x 879 km, 66.7° (Epoch: 02 October)

Date Brightness Start Highest point End Pass type
(mag) Time Alt. Az. Time Alt. Az. Time Alt. Az.
03 Oct ? 10:14:18 10° N 10:16:09 11° NNE 10:17:57 10° NE visible
03 Oct ? 11:54:59 10° NNW 12:00:00 35° NE 12:04:38 10° ESE visible
04 Oct ? 11:05:03 10° NNW 11:09:19 22° NE 11:13:19 10° E visible
04 Oct ? 12:46:40 10° NW 12:52:06 81° WSW 12:57:01 10° SSE visible
05 Oct ? 03:17:16 10° S 03:18:24 16° S 03:18:24 16° S visible
05 Oct ? 10:15:17 10° N 10:18:26 15° NNE 10:21:28 10° ENE visible
05 Oct ? 11:56:27 10° NNW 12:01:49 55° NE 12:06:41 10° SE visible
06 Oct ? 02:28:11 10° SSE 02:32:13 25° ESE 02:32:13 25° ESE visible
06 Oct ? 04:08:45 10° SW 04:11:46 31° SW 04:11:46 31° SW visible
06 Oct?06:04:38NNE06:04:38NNE05:51:20Wvisible
06 Oct ? 09:25:55 10° N 09:27:23 11° NNE 09:28:49 10° NE visible
06 Oct ? 11:06:23 10° NNW 11:11:18 32° NE 11:15:49 10° ESE visible
06 Oct ? 12:48:28 10° NW 12:53:32 45° WSW 12:58:10 10° S visible
07 Oct ? 01:40:28 10° SE 01:43:09 13° ESE 01:45:51 10° ENE visible
07 Oct ? 03:18:26 10° SSW 03:24:20 77° ESE 03:25:26 59° NE visible
07 Oct ? 05:02:08 10° W 05:04:58 22° WNW 05:04:58 22° WNW visible
07 Oct ? 10:16:29 10° NNW 10:20:35 21° NE 10:24:26 10° E visible
07 Oct ? 11:58:01 10° NNW 12:03:27 88° SW 12:08:21 10° SSE visible
08 Oct ? 02:28:43 10° S 02:34:14 43° ESE 02:38:40 15° NE visible
08 Oct ? 04:10:50 10° WSW 04:16:23 40° NW 04:18:10 33° N visible
08 Oct ? 05:57:21 10° NW 05:57:39 11° NW 05:57:39 11° NW visible
08 Oct ? 09:27:36 12° N 09:29:40 14° NNE 09:32:29 10° ENE visible
08 Oct ? 11:07:49 10° NNW 11:13:07 51° NE 11:17:56 10° SE visible
08 Oct ? 12:50:34 10° NW 12:54:48 25° WSW 12:58:45 10° SSW visible
09 Oct ? 01:39:46 10° SSE 01:44:19 24° ESE 01:48:52 10° ENE visible
09 Oct ? 03:20:03 10° SW 03:25:56 68° NW 03:30:44 16° NNE visible
09 Oct ? 05:05:02 10° WNW 05:09:05 19° NNW 05:10:10 18° NNW visible
09 Oct ? 10:20:23 22° N 10:22:34 30° NE 10:27:00 10° ESE visible
09 Oct ? 11:59:56 11° NW 12:04:54 49° WSW 12:09:33 10° S visible
10 Oct ? 02:29:49 10° SSW 02:35:40 71° ESE 02:41:32 10° NE visible
10 Oct ? 04:13:18 10° W 04:18:18 27° NW 04:22:06 15° N visible
10 Oct ? 09:34:02 15° ENE 09:34:02 15° ENE 09:35:32 10° E visible
10 Oct ? 11:13:35 55° NNW 11:14:46 85° ENE 11:19:39 10° SSE visible
10 Oct ? 12:53:26 10° WNW 12:55:54 14° WSW 12:58:16 10° SW visible
11 Oct ? 01:40:11 10° S 01:45:36 39° ESE 01:51:01 10° NE visible
11 Oct ? 03:22:04 10° WSW 03:27:41 43° NW 03:33:14 10° NNE visible
11 Oct ? 05:08:23 10° NW 05:11:17 14° NNW 05:13:03 12° N visible
11 Oct ? 10:27:18 22° ESE 10:27:18 22° ESE 10:29:10 10° SE visible
11 Oct ? 12:06:51 26° WSW 12:06:51 26° WSW 12:10:13 10° SSW visible
12 Oct ? 02:31:21 10° SW 02:37:16 73° NW 02:43:07 10° NNE visible
12 Oct ? 04:16:09 10° W 04:20:20 19° NW 04:24:22 10° N visible
12 Oct ? 11:20:25 13° S 11:20:25 13° S 11:20:55 10° SSE visible
